Location: Hylvaty SDH
(49.9612°N, 16.4057°E)
Time: 11:31:19
(UTC+01:00)

Tiros 1 - Pass Details

Date: 03 October 2020
Orbit: 630 x 663 km, 48.4° (Epoch: 28 October)

Event Time Altitude Azimuth Distance (km) Brightness Sun altitude
Rises 14:01:56 0° 225° (SW) 2,931 11.5 33.2°
Reaches altitude 10° 14:04:24 10° 216° (SW) 2,030 11.1 33.0°
Maximum altitude 14:08:37 34° 151° (SSE) 1,059 9.1 32.7°
Drops below altitude 10° 14:12:54 10° 87° (E) 2,057 9.6 32.4°
Sets 14:15:24 0° 78° (ENE) 2,976 10.2 32.2°
